Location: Unspecified
(43.4680°N, 87.1740°E)
Time: 21:40:01
(UTC+00:00)

BREEZE-M DEB (TANK) - Pass Details

Date: 17 April 2021
Orbit: 315 x 13085 km, 49.6° (Epoch: 12 May)

Event Time Altitude Azimuth Distance (km) Brightness Sun altitude
Rises 19:52:57 0° 288° (WNW) 7,000 8.3 -31.0°
Reaches altitude 10° 19:59:31 10° 292° (WNW) 4,310 7.2 -30.4°
Enters shadow 20:07:48 54° 1° (N) 889 4.0 -29.6°
Exits shadow 20:12:00 - 95° (E) 2,038 6.1 -29.1°
Sets 20:12:21 0° 96° (E) 2,202 6.3 -29.1°
